TimeAKST,TemperatureF,Dew PointF,Humidity,Sea Level PressureIn,VisibilityMPH,Wind Direction,Wind SpeedMPH,Gust SpeedMPH,PrecipitationIn,Events,Conditions,WindDirDegrees,DateUTC
12:53 AM,36.0,35.1,97,29.86,10.0,Calm,Calm,-,N/A,,Overcast,0,2013-02-19 09:53:00
1:53 AM,36.0,35.1,97,29.88,10.0,Calm,Calm,-,N/A,,Overcast,0,2013-02-19 10:53:00
2:05 AM,35.6,35.6,100,29.88,10.0,Calm,Calm,-,N/A,,Overcast,0,2013-02-19 11:05:00
2:43 AM,35.6,33.8,93,29.88,10.0,Calm,Calm,-,N/A,,Overcast,0,2013-02-19 11:43:00
3:40 AM,35.6,35.6,100,29.89,10.0,Calm,Calm,-,N/A,,Overcast,0,2013-02-19 12:40:00
3:53 AM,36.0,35.1,97,29.89,10.0,Calm,Calm,-,N/A,,Overcast,0,2013-02-19 12:53:00
4:53 AM,35.1,34.0,96,29.90,10.0,Calm,Calm,-,N/A,,Overcast,0,2013-02-19 13:53:00
5:17 AM,35.6,33.8,93,29.89,10.0,Calm,Calm,-,N/A,,Overcast,0,2013-02-19 14:17:00
5:53 AM,35.1,34.0,96,29.89,10.0,Calm,Calm,-,N/A,,Overcast,0,2013-02-19 14:53:00
6:45 AM,33.8,33.8,100,29.90,10.0,Calm,Calm,-,N/A,,Mostly Cloudy,0,2013-02-19 15:45:00
6:53 AM,34.0,33.1,96,29.91,10.0,Calm,Calm,-,N/A,,Mostly Cloudy,0,2013-02-19 15:53:00
7:17 AM,33.8,33.8,100,29.92,10.0,Calm,Calm,-,N/A,,Scattered Clouds,0,2013-02-19 16:17:00
7:53 AM,35.1,34.0,96,29.95,10.0,NNE,3.5,-,N/A,,Mostly Cloudy,30,2013-02-19 16:53:00
8:53 AM,37.9,36.0,93,29.93,10.0,Calm,Calm,-,N/A,,Mostly Cloudy,0,2013-02-19 17:53:00
9:00 AM,37.4,35.6,93,29.92,10.0,Calm,Calm,-,N/A,,Overcast,0,2013-02-19 18:00:00
9:53 AM,39.9,37.0,89,29.93,10.0,ESE,3.5,-,N/A,,Overcast,120,2013-02-19 18:53:00
10:32 AM,41.0,35.6,81,29.94,10.0,SE,4.6,-,N/A,,Overcast,140,2013-02-19 19:32:00
10:53 AM,41.0,37.0,86,29.95,10.0,SSE,5.8,-,N/A,,Overcast,150,2013-02-19 19:53:00
11:53 AM,41.0,36.0,82,29.94,10.0,SE,6.9,-,N/A,,Overcast,140,2013-02-19 20:53:00
12:53 PM,42.1,37.0,82,29.93,10.0,SE,8.1,-,N/A,,Overcast,130,2013-02-19 21:53:00
1:50 PM,41.0,37.4,87,29.92,10.0,SE,6.9,-,0.00,,Overcast,140,2013-02-19 22:50:00
1:53 PM,41.0,37.0,86,29.93,10.0,SE,8.1,-,0.00,,Overcast,140,2013-02-19 22:53:00
2:25 PM,41.0,37.4,87,29.91,10.0,ESE,6.9,-,0.01,,Overcast,120,2013-02-19 23:25:00
3:41 PM,39.2,37.4,93,29.91,6.0,Calm,Calm,-,0.02,Rain,Light Rain,0,2013-02-20 00:41:00
3:53 PM,39.9,37.9,93,29.92,10.0,Calm,Calm,-,0.04,Rain,Light Rain,0,2013-02-20 00:53:00
4:14 PM,41.0,37.4,87,29.91,10.0,SE,5.8,-,0.00,,Overcast,140,2013-02-20 01:14:00
4:53 PM,41.0,37.0,86,29.90,10.0,SE,5.8,-,0.00,,Overcast,140,2013-02-20 01:53:00
5:53 PM,39.9,36.0,86,29.88,10.0,SE,6.9,-,0.00,Rain,Light Rain,140,2013-02-20 02:53:00
6:53 PM,39.0,36.0,89,29.87,10.0,ESE,9.2,-,0.00,Rain,Light Rain,120,2013-02-20 03:53:00
7:40 PM,39.2,37.4,93,29.84,5.0,ESE,13.8,19.6,0.02,Rain,Light Rain,120,2013-02-20 04:40:00
7:48 PM,39.2,37.4,93,29.84,7.0,SE,9.2,-,0.03,Rain,Light Rain,130,2013-02-20 04:48:00
7:53 PM,39.9,37.9,93,29.85,8.0,SE,9.2,-,0.03,Rain,Light Rain,140,2013-02-20 04:53:00
8:11 PM,39.2,37.4,93,29.84,10.0,SSE,8.1,17.3,0.00,,Overcast,160,2013-02-20 05:11:00
8:53 PM,39.9,37.0,89,29.83,10.0,SE,11.5,18.4,0.00,,Overcast,140,2013-02-20 05:53:00
9:53 PM,39.9,36.0,86,29.79,10.0,SE,12.7,-,N/A,,Overcast,130,2013-02-20 06:53:00
10:43 PM,39.2,35.6,87,29.76,10.0,SE,15.0,21.9,N/A,,Overcast,140,2013-02-20 07:43:00
10:53 PM,41.0,36.0,82,29.77,10.0,SE,15.0,23.0,N/A,,Overcast,140,2013-02-20 07:53:00
11:07 PM,39.2,35.6,87,29.76,10.0,SE,13.8,23.0,N/A,,Overcast,140,2013-02-20 08:07:00
11:33 PM,39.2,35.6,87,29.75,10.0,SE,12.7,20.7,N/A,,Overcast,140,2013-02-20 08:33:00
11:51 PM,41.0,35.6,81,29.74,10.0,SE,15.0,24.2,N/A,,Overcast,140,2013-02-20 08:51:00
11:53 PM,41.0,36.0,82,29.75,10.0,SE,16.1,24.2,N/A,,Overcast,140,2013-02-20 08:53:00